NOAA 16 DEB, 41202

Orbit data source: Space-Track

NOAA 16 DEB, 41202 is space debris in SSO originally from a launch on Thu, 21 Sep 2000 UTC launched from the Air Force Western Test Range (AFWTR). Debris objects in space refer to the collection of defunct objects orbiting the Earth. Examples of debris include non-operational satellites, rocket bodies, and fragments generated from explosions, collisions, or faulty payload assembly.

Loading next visibility...
Identifier
41202, 2000-055DF
Orbit
SSO
Country
Flag of USUS
Related business
Manufacturer
Unknown
Mission
Spacecraft
Bus & Motor
Unknown
Mass
Unknown
Launch date (UTC)
2000-09-21 (25 years ago)
Launch vehicle
Unknown
Launch site
Air Force Western Test Range (AFWTR)
Object type
Payload
Rocket body
Debris
Shape & HBR
Unknown shape, 0.1 m
Radar Cross Section
Small (<0.1 m²)

Expand to show TLE details & history
Last TLE update: 13 hours ago

TLE from 13 hours ago
0 NOAA 16 DEB
1 41202U 00055DF  26036.92423004  .00003281  00000-0  19680-2 0  9990
2 41202  98.8776  20.6347 0076078  71.9083 289.0354 14.06177467518710
Epoch: 2026-02-05T22:10Z
TLE epoch observation values (Epoch: 2026-02-05T22:10:53.475Z)
Latitude
0.00002°
Longitude
-88.1576°
Altitude
857.754 km
Speed
7.433 km/s
True Right ascension
01h 22m 32s
True Declination
0° 00' 00"
Sunlit
Object was in daylight at epoch
Visualization orbit readout
Latitude
Unknown
Longitude
Unknown
Altitude
Unknown
Speed
Unknown
Apparent Right ascension
Unknown
Apparent Declination
Unknown
Sunlit
N/A
Visualization observer readout
Local Sidereal Time
13:04:18
Azimuth
Unknown
Elevation
Unknown
Doppler factor
Unknown
Orbital elements
Apogee altitude
924.807 km
Perigee altitude
814.527 km
Semi-major axis
7,247.804 km
Eccentricity
0.00761
Inclination
98.8776°
RAAN
20.6347°
Arg. of periapsis
71.9083°
True anomaly
288.20875°
Mean anomaly
289.0354°
Eccentric anomaly
288.62233°
Mean motion
3.5175 °/min
Orbital period
102.35 mins
BSTAR
0.001968
Loading maneuver chart data...
Computing Atmospheric mass density...
Loading historical data...
Loading historical data...
Loading historical data...
Loading historical data...
Loading historical data...
Loading historical data...
Loading historical data...

Documentation

Showing up to 5 results
|